Overview Statistics Trail Chart Weather Telemetry Raw packets
 

This is the latest recevied weather packets stored in our database for station/object XE2B-20. If no packets are shown the sender has not sent any weather packets the latest 10 day(s).

<< 17 18 19 20 21 22 23 >>
Time Temp. Humidity Pressure Rain* Wind** Luminosity Snow
1787980625 17.78° C 38% 810 hPa - - - -
1787979126 17.78° C 37% 809.8 hPa - - - -
1787977628 18.89° C 37% 809.6 hPa - - - -
1787976128 19.44° C 36% 809.3 hPa - - - -
1787974631 20° C 35% 808.9 hPa - - - -
1787973132 20.56° C 35% 808.4 hPa - - - -
1787971640 21.11° C 34% 808.1 hPa - - - -
1787970134 21.67° C 34% 807.9 hPa - - - -
1787968635 22.22° C 34% 807.7 hPa - - - -
1787967136 23.33° C 33% 807.4 hPa - - - -
1787965638 23.89° C 33% 807 hPa - - - -
1787964153 25° C 33% 806.6 hPa - - - -
1787962638 26.11° C 32% 806.4 hPa - - - -
1787961139 27.78° C 31% 806 hPa - - - -
1787959641 29.44° C 29% 805.9 hPa - - - -
1787958144 30° C 30% 805.9 hPa - - - -
1787956647 34.44° C 26% 806.1 hPa - - - -
1787955156 35° C 27% 806.1 hPa - - - -
1787953656 33.89° C 28% 806.5 hPa - - - -
1787952152 36.11° C 27% 807 hPa - - - -
1787950655 37.22° C 26% 807.2 hPa - - - -
1787949156 36.11° C 27% 807.4 hPa - - - -
1787947658 35.56° C 27% 808 hPa - - - -
1787946160 35.56° C 27% 808.4 hPa - - - -
1787944667 33.89° C 29% 808.8 hPa - - - -

* Rain since midnight (hover to see other rain measurements)
** Current wind speed in m/s (hover to see current wind gust speed)